User: anonymous   Login
Location: Niverville
(49.6028°N, 97.0419°W)
Time: 06:57:52
(UTC-06:00)
Language:

BREEZE-M DEB (TANK) - Orbit

View from above orbital plane
View from above orbital plane
View from above satellite
View from above satellite

Ground track
Ground track

The orbit data is extracted from the following two-line orbital elements,

1 33374U 08044B   17349.49926060  .00000592  00000-0  20787-3 0  9999
2 33374  49.4655 156.2516 5419061 193.6095 142.4636  4.87213865162830
Epoch (UTC): 15 December 2017 11:58:56
Eccentricity: 0.5419061
inclination: 49.4655°
perigee height: 355 km
apogee height: 16284 km
right ascension of ascending node: 156.2516°
argument of perigee: 193.6095°
revolutions per day: 4.87213865
mean anomaly at epoch: 142.4636°
orbit number at epoch: 16283

The dashed part of the orbit path shows where the satellite is in the earth's shadow,  

DLR